TimeEDT,TemperatureF,Dew PointF,Humidity,Sea Level PressureIn,VisibilityMPH,Wind Direction,Wind SpeedMPH,Gust SpeedMPH,PrecipitationIn,Events,Conditions,WindDirDegrees,DateUTC
12:53 AM,37.9,30.0,73,30.27,10.0,North,8.1,-,N/A,,Partly Cloudy,350,2012-10-28 04:53:00
1:53 AM,36.0,28.9,76,30.27,10.0,NNW,10.4,-,N/A,,Clear,340,2012-10-28 05:53:00
2:53 AM,35.1,28.0,76,30.28,10.0,NNW,9.2,-,N/A,,Clear,340,2012-10-28 06:53:00
3:53 AM,35.1,27.0,72,30.29,10.0,North,8.1,-,N/A,,Clear,360,2012-10-28 07:53:00
4:53 AM,34.0,27.0,75,30.28,10.0,North,9.2,-,N/A,,Clear,350,2012-10-28 08:53:00
5:53 AM,36.0,26.1,67,30.28,10.0,North,9.2,-,N/A,,Clear,360,2012-10-28 09:53:00
6:53 AM,36.0,28.9,76,30.27,10.0,North,12.7,-,N/A,,Clear,350,2012-10-28 10:53:00
7:53 AM,35.1,28.9,78,30.27,10.0,North,12.7,-,N/A,,Clear,350,2012-10-28 11:53:00
8:53 AM,37.0,30.0,76,30.27,10.0,North,15.0,23.0,N/A,,Clear,360,2012-10-28 12:53:00
9:53 AM,39.9,30.0,68,30.27,10.0,North,16.1,-,N/A,,Mostly Cloudy,10,2012-10-28 13:53:00
10:53 AM,44.1,30.9,60,30.27,10.0,North,18.4,27.6,N/A,,Partly Cloudy,10,2012-10-28 14:53:00
11:53 AM,45.0,33.1,63,30.28,10.0,NNE,20.7,27.6,N/A,,Overcast,20,2012-10-28 15:53:00
12:53 PM,48.2,33.8,58,30.24,10.0,NNE,21.9,31.1,N/A,,Partly Cloudy,30,2012-10-28 16:53:00
1:35 PM,46.4,33.8,62,30.23,10.0,NNE,19.6,27.6,N/A,,Overcast,30,2012-10-28 17:35:00
1:53 PM,46.9,33.1,59,30.25,10.0,NE,23.0,31.1,N/A,,Overcast,40,2012-10-28 17:53:00
2:53 PM,46.9,32.0,56,30.22,10.0,NNE,23.0,27.6,N/A,,Mostly Cloudy,30,2012-10-28 18:53:00
3:53 PM,48.0,28.9,48,30.22,10.0,NNE,16.1,-,N/A,,Mostly Cloudy,30,2012-10-28 19:53:00
4:53 PM,46.0,26.1,46,30.22,10.0,NE,19.6,-,N/A,,Clear,40,2012-10-28 20:53:00
5:53 PM,44.1,27.0,51,30.22,10.0,NNE,15.0,-,N/A,,Clear,30,2012-10-28 21:53:00
6:53 PM,42.1,25.0,51,30.23,10.0,NNE,13.8,-,N/A,,Clear,20,2012-10-28 22:53:00
7:53 PM,42.1,24.1,49,30.24,10.0,North,12.7,-,N/A,,Overcast,360,2012-10-28 23:53:00
8:53 PM,41.0,25.0,53,30.24,10.0,North,12.7,-,N/A,,Partly Cloudy,360,2012-10-29 00:53:00
9:53 PM,39.9,25.0,55,30.23,10.0,North,13.8,-,N/A,,Clear,350,2012-10-29 01:53:00
10:53 PM,39.0,26.1,60,30.21,10.0,NNW,13.8,-,N/A,,Clear,340,2012-10-29 02:53:00
11:53 PM,39.0,26.1,60,30.20,10.0,North,15.0,-,N/A,,Clear,350,2012-10-29 03:53:00